Location: Maiden
(35.5760°N, 81.2120°W)
Time: 10:41:12
(UTC-04:00)

A-11 Canister half - All Passes

Search period start: 04 August 2020 00:00
Search period end: 14 August 2020 00:00
Orbit: 1527 x 1682 km, 47.3° (Epoch: 03 August)

Date Brightness Start Highest point End Pass type
(mag) Time Alt. Az. Time Alt. Az. Time Alt. Az.
04 Aug - 12:48:09 10° SSW 12:57:15 40° SE 13:06:22 10° ENE daylight
04 Aug - 14:51:46 10° WSW 15:01:57 76° NNW 15:12:06 10° NE daylight
04 Aug - 16:58:52 10° WNW 17:08:26 44° N 17:17:51 10° ENE daylight
04 Aug - 19:05:48 10° WNW 19:15:31 50° NNE 19:24:57 10° E daylight
04 Aug - 21:11:21 10° WNW 21:21:17 78° SW 21:30:51 10° SE visible
04 Aug - 23:18:22 10° W 23:25:09 22° SW 23:31:49 10° S visible
05 Aug - 12:26:42 10° SSW 12:35:37 37° SE 12:44:36 10° ENE daylight
05 Aug - 14:30:04 10° WSW 14:40:15 78° NNW 14:50:25 10° NE daylight
05 Aug - 16:37:05 10° W 16:46:40 44° N 16:56:08 10° ENE daylight
05 Aug - 18:44:04 10° WNW 18:53:47 49° NNE 19:03:13 10° E daylight
05 Aug - 20:49:38 10° WNW 20:59:37 81° SW 21:09:14 10° SE visible
05 Aug - 22:56:27 10° WNW 23:03:35 23° SW 23:10:34 10° S visible
06 Aug - 12:05:15 10° S 12:14:00 35° SE 12:22:49 10° ENE daylight
06 Aug - 14:08:23 10° WSW 14:18:33 81° NNW 14:28:44 10° NE daylight
06 Aug - 16:15:16 10° W 16:24:54 45° N 16:34:24 10° ENE daylight
06 Aug - 18:22:20 10° WNW 18:32:02 48° NNE 18:41:28 10° E daylight
06 Aug - 20:27:56 10° WNW 20:37:58 85° SW 20:47:37 10° SE daylight
06 Aug - 22:34:35 10° WNW 22:42:01 25° SW 22:49:17 10° S visible
07 Aug - 11:43:49 10° S 11:52:24 33° SE 12:01:01 10° ENE daylight
07 Aug - 13:46:41 10° WSW 13:56:52 84° NW 14:07:04 10° NE daylight
07 Aug - 15:53:29 10° W 16:03:09 46° NNW 16:12:42 10° ENE daylight
07 Aug - 18:00:36 10° WNW 18:10:17 47° NNE 18:19:43 10° E daylight
07 Aug - 20:06:15 10° NW 20:16:19 88° SW 20:26:01 10° SE daylight
07 Aug - 22:12:43 10° WNW 22:20:26 27° SW 22:27:59 10° S visible
08 Aug - 11:22:24 10° S 11:30:47 31° SE 11:39:14 10° ENE daylight
08 Aug - 13:25:01 10° SW 13:35:10 87° NW 13:45:23 10° NE daylight
08 Aug - 15:31:42 10° W 15:41:23 46° NNW 15:50:59 10° ENE daylight
08 Aug - 17:38:52 10° WNW 17:48:32 47° NNE 17:57:58 10° E daylight
08 Aug - 19:44:33 10° NW 19:54:39 89° NE 20:04:22 10° SE daylight
08 Aug - 21:50:53 10° WNW 21:58:51 29° SW 22:06:39 10° S visible
09 Aug - 11:01:02 10° S 11:09:11 29° SE 11:17:24 10° ENE daylight
09 Aug - 13:03:21 10° SW 13:13:29 90° S 13:23:42 10° NE daylight
09 Aug - 15:09:54 10° W 15:19:37 47° NNW 15:29:16 10° ENE daylight
09 Aug - 17:17:08 10° WNW 17:26:47 46° NNE 17:36:13 10° E daylight
09 Aug - 19:22:51 10° NW 19:32:58 86° NNE 19:42:44 10° SE daylight
09 Aug - 21:29:03 10° WNW 21:37:16 31° SW 21:45:16 10° S visible
10 Aug - 10:39:40 10° S 10:47:35 27° SE 10:55:34 10° ENE daylight
10 Aug - 12:41:41 10° SW 12:51:48 87° SE 13:02:01 10° NE daylight
10 Aug - 14:48:07 10° W 14:57:52 48° NNW 15:07:33 10° ENE daylight
10 Aug - 16:55:22 10° WNW 17:05:01 45° N 17:14:27 10° E daylight
10 Aug - 19:01:10 10° NW 19:11:18 83° NE 19:21:06 10° ESE daylight
10 Aug - 21:07:15 10° WNW 21:15:41 33° SW 21:23:53 10° S visible
11 Aug - 10:18:20 10° S 10:25:59 26° SE 10:33:43 10° ENE daylight
11 Aug - 12:20:03 10° SW 12:30:08 84° SE 12:40:20 10° ENE daylight
11 Aug - 14:26:21 10° W 14:36:06 49° NNW 14:45:51 10° ENE daylight
11 Aug - 16:33:38 10° WNW 16:43:15 45° N 16:52:42 10° E daylight
11 Aug - 18:39:28 10° NW 18:49:37 80° NNE 18:59:26 10° ESE daylight
11 Aug - 20:45:27 10° WNW 20:54:05 35° SW 21:02:29 10° S visible
12 Aug - 09:57:01 10° S 10:04:24 24° SE 10:11:50 10° ENE daylight
12 Aug - 11:58:24 10° SW 12:08:27 81° SE 12:18:38 10° ENE daylight
12 Aug - 14:04:34 10° W 14:14:21 50° NNW 14:24:08 10° ENE daylight
12 Aug - 16:11:54 10° WNW 16:21:30 44° N 16:30:57 10° E daylight
12 Aug - 18:17:46 10° NW 18:27:55 77° NNE 18:37:46 10° ESE daylight
12 Aug - 20:23:40 10° WNW 20:32:29 37° SW 20:41:05 10° SSE visible
13 Aug - 09:35:45 10° S 09:42:48 22° SE 09:49:55 10° E daylight
13 Aug - 11:36:46 10° SW 11:46:47 77° SE 11:56:57 10° ENE daylight
13 Aug - 13:42:48 10° W 13:52:36 51° NNW 14:02:26 10° ENE daylight
13 Aug - 15:50:08 10° WNW 15:59:44 44° N 16:09:11 10° ENE daylight
13 Aug - 17:56:05 10° NW 18:06:14 75° NNE 18:16:06 10° ESE daylight
13 Aug - 20:01:54 10° WNW 20:10:53 40° SW 20:19:38 10° SSE daylight
